Location: Shenandoah County Park
(38.9356°N, 78.4524°W)
Time: 03:20:44
(UTC-04:00)

SR - Pass Details

Date: 15 February 2023
Orbit: 583 x 866 km, 66.7° (Epoch: 31 March)

Event Time Altitude Azimuth Distance (km) Brightness Sun altitude
Rises 21:37:03 0° 317° (NW) 2,809 ? -43.9°
Enters shadow 21:37:40 - 314° (NW) 2,576 ? -44.0°
Reaches altitude 10° 21:39:36 10° 303° (WNW) 1,904 - -44.4°
Maximum altitude 21:42:57 23° 250° (WSW) 1,267 - -45.0°
Drops below altitude 10° 21:46:21 10° 198° (SSW) 1,931 - -45.6°
Sets 21:48:59 0° 184° (S) 2,861 - -46.0°
